Broken Bow, NE

7:51 AM CDT on April 23, 2017 (GMT -0500)
Broken Bow Municipal

Weather History for KBBW - November, 2013

Change the Weather History Date:

Tuesday, November 5, 2013

  Actual Average Record
Temperature  
Mean Temperature 31 °F 41 °F  
Max Temperature 36 °F 54 °F 83 °F (1945)
Min Temperature 25 °F 28 °F -1 °F (1991)
Degree Days  
Heating Degree Days 34 24  
Month to date heating degree days 117 114  
Cooling Degree Days 0 0  
Month to date cooling degree days 0 0  
Year to date cooling degree days 814 768  
Moisture  
Dew Point 31 °F    
Average Humidity 91    
Maximum Humidity 100    
Minimum Humidity 82    
Precipitation  
Precipitation 0.41 in 0.03 in 1.27 in (1922)
Sea Level Pressure  
Sea Level Pressure 30.06 in    
Wind  
Wind Speed 11 mph (NNE)    
Max Wind Speed 20 mph    
Max Gust Speed 26 mph    
Visibility 3 miles    
Events Fog , Rain , Snow    
T = Trace of Precipitation, MM = Missing Value Source: NWS Daily Summary

Daily Weather History Graph

Daily Weather History Graph

Search for Another Location

Airport or City:

Trip Planner

Search our weather history database for the weather conditions in past years. The results will help you decide how hot, cold, wet, or windy it might be!

Date:

Astronomy

Nov. 05, 2013 Rise Set
Actual Time 7:15 AM CST 5:28 PM CST
Civil Twilight 6:46 AM CST 5:57 PM CST
Nautical Twilight 6:13 AM CST 6:30 PM CST
Astronomical Twilight 5:40 AM CST 7:02 PM CST
Moon 9:33 AM CST (11/5) 7:30 PM CST (11/5)
Length of Visible Light 11h 11m
Length of Day
10h 13m
Waxing Crescent, 7% of the Moon is Illuminated
Nov 5
Waxing Crescent
Nov 9
First Quarter
Nov 17
Full
Nov 25
Last Quarter
Dec 2
New

Hourly Weather History & Observations

Time (CST) Temp. Windchill Dew Point Humidity Pressure Visibility Wind Dir Wind Speed Gust Speed Precip Events Conditions
12:53 AM 27.0 °F - 25.0 °F 92% 30.13 in 10.0 mi Calm Calm - N/A   Clear
1:53 AM 28.9 °F 25.2 °F 25.0 °F 85% 30.12 in 10.0 mi ESE 3.5 mph - N/A   Clear
2:53 AM 26.1 °F - 23.0 °F 88% 30.13 in 10.0 mi Calm Calm - N/A   Clear
3:53 AM 33.1 °F 30.0 °F 28.0 °F 82% 30.09 in 10.0 mi ESE 3.5 mph - N/A   Mostly Cloudy
4:53 AM 34.0 °F - 28.0 °F 79% 30.07 in 10.0 mi Calm Calm - N/A   Partly Cloudy
5:53 AM 34.0 °F 29.8 °F 28.9 °F 82% 30.10 in 10.0 mi South 4.6 mph - N/A   Overcast
6:51 AM 35.6 °F 30.7 °F 28.4 °F 75% 30.06 in 3.0 mi East 5.8 mph - 0.00 in Snow Light Snow
6:53 AM 35.1 °F 31.0 °F 28.9 °F 78% 30.12 in 2.5 mi East 4.6 mph - 0.00 in Snow Light Snow
7:08 AM 33.8 °F 29.6 °F 30.2 °F 87% 30.07 in 1.5 mi ENE 4.6 mph - 0.02 in Snow Light Snow
7:19 AM 32.0 °F 25.6 °F 32.0 °F 100% 30.07 in 1.2 mi ENE 6.9 mph - 0.04 in Snow Light Snow
7:34 AM 32.0 °F 26.4 °F 32.0 °F 100% 30.07 in 1.0 mi ENE 5.8 mph - 0.06 in Snow Light Snow
7:53 AM 32.0 °F 24.8 °F 32.0 °F 100% 30.13 in 1.0 mi East 8.1 mph - 0.09 in Snow Light Snow
7:57 AM 32.0 °F 24.2 °F 32.0 °F 100% 30.06 in 0.8 mi East 9.2 mph - 0.01 in Snow Light Snow
8:29 AM 32.0 °F 22.1 °F 32.0 °F 100% 30.04 in 1.0 mi ENE 13.8 mph - 0.07 in Snow Light Snow
8:44 AM 32.0 °F 22.5 °F 32.0 °F 100% 30.04 in 1.5 mi ENE 12.7 mph - 0.07 in Snow Light Snow
8:53 AM 32.0 °F 22.1 °F 32.0 °F 100% 30.11 in 1.0 mi East 13.8 mph - 0.07 in Snow Light Snow
9:00 AM 32.0 °F 22.5 °F 32.0 °F 100% 30.04 in 2.0 mi ENE 12.7 mph 20.7 mph 0.00 in Snow Light Snow
9:09 AM 32.0 °F 22.5 °F 32.0 °F 100% 30.03 in 1.0 mi ENE 12.7 mph - 0.01 in Snow Light Snow
9:18 AM 32.0 °F 21.6 °F 32.0 °F 100% 30.02 in 0.8 mi ENE 15.0 mph - 0.01 in Snow Light Snow
9:34 AM 32.0 °F 20.5 °F 32.0 °F 100% 30.00 in 1.2 mi ENE 18.4 mph - 0.02 in Snow Light Snow
9:39 AM 33.8 °F 22.8 °F 32.0 °F 93% 30.00 in 3.0 mi ENE 18.4 mph - 0.02 in Snow Light Snow
9:53 AM 33.1 °F 23.0 °F 32.0 °F 96% 30.06 in 8.0 mi ENE 15.0 mph 24.2 mph 0.02 in Rain Light Freezing Rain
10:12 AM 33.8 °F 23.2 °F 32.0 °F 93% 29.99 in 2.5 mi NE 17.3 mph 25.3 mph 0.00 in Snow Light Snow
10:20 AM 33.8 °F 23.5 °F 32.0 °F 93% 29.99 in 1.0 mi NE 16.1 mph 26.5 mph 0.01 in Snow Light Snow
10:32 AM 33.8 °F 24.3 °F 32.0 °F 93% 29.99 in 0.8 mi ENE 13.8 mph 23.0 mph 0.03 in Snow Light Snow
10:53 AM 32.0 °F 24.2 °F 32.0 °F 100% 30.07 in 0.8 mi ENE 9.2 mph - 0.07 in Snow Light Snow
11:00 AM 33.8 °F 27.0 °F 32.0 °F 93% 30.01 in 1.2 mi ENE 8.1 mph - 0.00 in Snow Light Snow
11:12 AM 33.8 °F 25.3 °F 32.0 °F 93% 30.00 in 1.0 mi NE 11.5 mph - 0.01 in Snow Light Snow
11:23 AM 32.0 °F 23.0 °F 32.0 °F 100% 30.00 in 0.8 mi NNE 11.5 mph - 0.02 in Snow Light Snow
11:53 AM 33.1 °F 23.9 °F 32.0 °F 96% 30.06 in 0.5 mi NNE 12.7 mph - 0.07 in Fog , Snow Snow
12:36 PM 32.0 °F 22.5 °F 32.0 °F 100% 29.98 in 0.8 mi NNE 12.7 mph - 0.04 in Snow Light Snow
12:48 PM 33.8 °F 24.8 °F 32.0 °F 93% 29.97 in 1.0 mi NNE 12.7 mph 20.7 mph 0.04 in Snow Light Snow
12:53 PM 33.1 °F 23.4 °F 32.0 °F 96% 30.04 in 1.0 mi NNE 13.8 mph 21.9 mph 0.04 in Snow Light Snow
1:11 PM 33.8 °F 24.8 °F 32.0 °F 93% 29.98 in 1.2 mi NNE 12.7 mph - 0.01 in Snow Light Snow
1:16 PM 33.8 °F 24.8 °F 32.0 °F 93% 29.98 in 1.5 mi NNE 12.7 mph - 0.01 in Snow Light Snow
1:24 PM 33.8 °F 23.9 °F 32.0 °F 93% 29.97 in 3.0 mi North 15.0 mph - 0.02 in Snow Light Snow
1:33 PM 33.8 °F 25.3 °F 32.0 °F 93% 29.97 in 2.0 mi NNE 11.5 mph - 0.02 in Snow Light Snow
1:40 PM 32.0 °F 22.5 °F 32.0 °F 100% 29.96 in 1.2 mi NNE 12.7 mph 23.0 mph 0.03 in Snow Light Snow
1:49 PM 32.0 °F 21.2 °F 32.0 °F 100% 29.97 in 1.0 mi North 16.1 mph - 0.03 in Snow Light Snow
1:53 PM 32.0 °F 20.8 °F 32.0 °F 100% 30.04 in 0.8 mi North 17.3 mph - 0.03 in Snow Light Snow
2:53 PM 32.0 °F 21.2 °F 32.0 °F 100% 30.06 in 0.8 mi North 16.1 mph - 0.01 in Snow Light Snow
3:02 PM 33.8 °F 23.9 °F 32.0 °F 93% 29.98 in 1.0 mi North 15.0 mph - 0.00 in Snow Light Snow
3:13 PM 32.0 °F 20.8 °F 32.0 °F 100% 29.99 in 1.0 mi North 17.3 mph 21.9 mph 0.00 in Snow Light Snow
3:18 PM 32.0 °F 20.8 °F 32.0 °F 100% 29.99 in 0.8 mi North 17.3 mph - 0.00 in Snow Light Snow
3:29 PM 32.0 °F 22.1 °F 32.0 °F 100% 30.00 in 0.8 mi North 13.8 mph - 0.00 in Snow Light Snow
3:48 PM 32.0 °F 21.2 °F 32.0 °F 100% 30.00 in 1.0 mi North 16.1 mph - 0.01 in Snow Light Snow
3:53 PM 32.0 °F 21.6 °F 30.9 °F 96% 30.07 in 1.0 mi North 15.0 mph - 0.01 in Snow Light Snow
4:08 PM 32.0 °F 21.2 °F 30.2 °F 93% 30.02 in 0.8 mi North 16.1 mph - 0.00 in Snow Light Snow
4:34 PM 32.0 °F 22.1 °F 30.2 °F 93% 30.03 in 1.2 mi North 13.8 mph - 0.00 in Snow Light Snow
4:53 PM 32.0 °F 20.8 °F 30.9 °F 96% 30.10 in 1.0 mi North 17.3 mph - 0.00 in Snow Light Snow
5:11 PM 30.2 °F 18.5 °F 30.2 °F 100% 30.04 in 1.8 mi North 17.3 mph 24.2 mph 0.00 in Snow Light Snow
5:45 PM 30.2 °F 18.9 °F 30.2 °F 100% 30.05 in 3.0 mi North 16.1 mph - 0.00 in Snow Light Snow
5:53 PM 30.9 °F 19.8 °F 30.0 °F 96% 30.12 in 5.0 mi North 16.1 mph - 0.00 in Snow Light Snow
6:03 PM 30.2 °F 19.8 °F 30.2 °F 100% 30.06 in 7.0 mi North 13.8 mph - 0.00 in   Overcast
6:18 PM 30.2 °F 20.8 °F 30.2 °F 100% 30.07 in 3.0 mi North 11.5 mph - 0.00 in Snow Light Snow
6:26 PM 30.2 °F 19.8 °F 30.2 °F 100% 30.07 in 3.0 mi North 13.8 mph - 0.00 in Snow Light Snow
6:53 PM 30.9 °F 20.2 °F 30.0 °F 96% 30.14 in 4.0 mi North 15.0 mph - 0.00 in Snow Light Snow
7:07 PM 30.2 °F 18.9 °F 28.4 °F 93% 30.09 in 2.5 mi North 16.1 mph - 0.00 in Snow Light Snow
7:16 PM 30.2 °F 18.5 °F 28.4 °F 93% 30.10 in 3.0 mi NNW 17.3 mph 23.0 mph 0.00 in Snow Light Snow
7:25 PM 30.2 °F 18.9 °F 28.4 °F 93% 30.10 in 4.0 mi NNW 16.1 mph - 0.00 in Snow Light Snow
7:36 PM 30.2 °F 18.9 °F 28.4 °F 93% 30.11 in 2.5 mi NNW 16.1 mph - 0.00 in Snow Light Snow
7:53 PM 30.0 °F 19.5 °F 28.0 °F 92% 30.18 in 3.0 mi North 13.8 mph - 0.00 in Snow Light Snow
8:53 PM 30.0 °F 20.5 °F 28.0 °F 92% 30.19 in 6.0 mi NNW 11.5 mph - 0.00 in Snow Light Snow
9:53 PM 28.9 °F 18.6 °F 28.0 °F 96% 30.21 in 5.0 mi North 12.7 mph - 0.00 in Snow Light Snow
10:53 PM 28.0 °F 18.1 °F 26.1 °F 92% 30.21 in 10.0 mi NNW 11.5 mph - 0.00 in   Partly Cloudy
11:53 PM 28.0 °F 19.3 °F 27.0 °F 96% 30.20 in 10.0 mi NNW 9.2 mph - N/A   Overcast